#timestamp,LO_Frequency,Hit,StdDev 
1678197615.8,286047002.4,N
1678197635.6,286047002.2,N
1678197655.5,286047002.8,N
1678197675.3,286046999.7,N
1678197695.2,286047000.2,N
1678197715.9,286047000.3,N
1678197735.7,286047002.4,N
1678197755.6,286047002.2,N
1678197775.4,286047002.7,N
1678197795.2,286047002.3,N
1678197815.1,286047002.6,N
1678197816.0,286047002.6,N
1678197835.8,286047002.3,N
1678197885.7,286047002.8,E
1678197895.6,286046998.5,N
1678197915.4,286046996.9,P
1678197935.3,286046999.1,N
1678197955.1,286046997.1,Y
1678197975.9,286046998.7,P
1678197995.7,286046998.4,P
1678198015.5,286046999.0,P
1678198035.4,286046999.5,N
1678198055.2,286046997.0,Y
1678198075.1,286046998.3,P
1678198076.0,286046998.3,P
1678198095.8,286047001.1,P
1678198115.6,286046999.3,N
1678198135.5,286046999.5,N
1678198155.3,286046999.2,N
1678198175.2,286046997.3,Y
1678198195.9,286046994.9,P
1678198215.7,286046997.8,N
1678198235.6,286046997.8,N
1678198255.4,286046998.0,N
1678198275.2,286046995.7,Y
1678198295.1,286046998.8,P
1678198296.0,286046998.8,N
1678198315.8,286047001.2,N
1678198335.7,286046998.6,N
1678198355.5,286047001.2,N
1678198375.3,286046998.2,N
1678198395.2,286046996.9,N
1678198415.0,286046996.9,N
1678198415.9,286046996.9,N
1678198435.7,286046999.6,N
1678198455.6,286046998.0,N
1678198475.4,286046995.7,Y
1678198495.3,286046996.7,P
1678198515.1,286046999.3,N
1678198535.8,286046998.9,N
1678198555.7,286047000.9,N
1678198575.5,286046999.1,N
1678198595.4,286046997.0,N
1678198615.2,286046998.0,N
1678198635.0,286046997.7,N
1678198635.9,286046997.7,N
1678198655.8,286046997.3,N
1678198675.6,286046997.5,N
1678198695.5,286046994.9,Y
1678198715.3,286046998.2,P
1678198735.1,286046999.2,P
1678198755.9,286046996.6,P
1678198775.7,286046999.6,N
1678198795.5,286046999.5,N
1678198815.4,286046998.6,N
1678198835.2,286047000.8,N
1678198855.1,286047001.2,N
1678198856.0,286047001.2,N
1678198875.8,286047002.8,N
1678198895.6,286047000.1,N
1678198915.5,286047000.3,N
1678198935.3,286046999.9,N
1678198955.2,286047000.0,N
1678198975.9,286047000.7,N
1678198995.7,286046998.2,N
1678199015.6,286046997.0,N
1678199035.4,286046996.9,N
1678199055.2,286046999.5,N
1678199075.1,286046998.9,N
1678199076.0,286046998.9,N
1678199095.8,286046999.1,N
1678199115.7,286046998.3,N
1678199135.5,286046998.9,N
1678199155.3,286046996.5,N
1678199175.2,286046997.4,N
1678199195.0,286046997.0,N
1678199195.9,286046997.0,N
1678199215.8,286046995.6,N
1678199235.6,286046995.3,N
1678199255.4,286046995.3,N
1678199275.3,286046998.0,N
1678199295.1,286046997.6,N
1678199315.9,286046995.1,N
1678199335.7,286046995.5,N
1678199355.5,286046995.5,N
1678199375.4,286046995.2,N
1678199395.2,286046997.8,N
1678199415.1,286046997.8,N
1678199416.0,286046997.8,N
1678199435.8,286046997.2,N
1678199455.7,286046997.5,N
1678199475.5,286046994.9,Y
1678199495.3,286046998.6,P
1678199515.2,286046996.7,P
1678199535.0,286046999.1,N
1678199535.9,286046999.1,N
1678199555.8,286046998.3,N
1678199575.6,286046999.6,N
1678199595.5,286046997.2,Y
1678199615.3,286047000.5,P
1678199635.1,286047000.4,N
1678199655.9,286047000.9,N
1678199675.7,286046998.3,N
1678199695.6,286046998.5,N
1678199715.4,286046998.3,N
1678199735.2,286046998.3,N
1678199755.1,286046998.1,N
1678199756.0,286046998.1,N
1678199775.8,286046999.4,N
1678199795.7,286046999.3,N
1678199815.5,286046997.4,N
1678199835.3,286046995.0,Y
1678199855.2,286046997.3,P
1678199875.0,286046999.6,N
1678199875.9,286046999.6,N
1678199895.8,286046995.4,Y
1678199915.6,286046996.8,P
1678199935.5,286046999.4,N
1678199955.3,286047001.2,N
1678199975.1,286047000.7,N
1678199995.9,286047001.2,N
1678200015.7,286047000.8,N
1678200035.6,286047000.4,N
1678200055.4,286047001.0,N
1678200075.2,286046999.0,N
1678200095.1,286046996.6,N
1678200096.0,286046996.6,N
1678200115.8,286046999.0,N
1678200135.7,286046997.7,N
1678200155.5,286046997.7,N
1678200175.3,286046996.7,N
1678200195.2,286046996.7,N
1678200215.0,286046998.8,N
1678200215.9,286046998.8,N
1678200235.8,286046999.3,N
1678200255.6,286046998.2,N
1678200275.4,286046999.2,N
1678200295.3,286046998.7,N
1678200315.1,286046996.8,N
1678200335.9,286046999.2,N
1678200355.7,286046998.7,N
1678200375.5,286046997.3,N
1678200395.4,286046997.5,N
1678200415.2,286046997.5,N
1678200435.0,286046998.0,N
1678200435.9,286046998.0,N
1678200455.8,286046997.5,N
1678200475.6,286046997.9,N
1678200495.5,286046996.6,N
1678200515.3,286046999.5,N
1678200535.1,286046999.3,N
1678200555.9,286046999.0,N
1678200575.7,286046998.6,N
1678200595.6,286046999.2,N
1678200615.4,286046996.7,Y
1678200635.2,286046998.1,P
1678200655.1,286046998.9,P
1678200656.0,286046998.9,P
1678200675.8,286046998.9,N
1678200695.7,286047000.0,N
1678200715.5,286047001.1,N
1678200735.3,286047001.2,N
1678200755.2,286046998.6,N
1678200805.0,286046999.4,E
1678200815.9,286046999.5,N
1678200835.7,286046998.3,P
1678200855.5,286046996.5,P
1678200875.4,286046997.1,N
1678200895.2,286046997.0,N
1678200915.1,286046999.5,N
1678200916.0,286046999.5,N
1678200935.8,286046999.5,N
1678200955.7,286046999.3,N
1678200975.5,286046997.4,N
1678200995.3,286046997.7,N
1678201015.2,286046997.1,N
1678201035.9,286046996.7,N
1678201055.7,286046997.2,N
1678201075.6,286046997.3,N
1678201095.4,286046997.3,N
1678201115.3,286046997.4,N
1678201135.1,286046997.2,N
1678201136.0,286046997.2,N
1678201155.8,286046996.3,Y
1678201175.7,286046999.1,P
1678201195.5,286046999.3,N
